Tracking 28790 objects as of 19-Apr-2024
HD Live streaming from Space Station
objects crossing your sky now

BREEZE-M R/B

Track BREEZE-M R/B now!


NORAD ID: 40278
Int'l Code: 2014-064B
Perigee: 34,658.5 km
Apogee: 39,884.4 km
Inclination: 7.2 °
Period: 1,512.2 minutes
Semi major axis: 43642 km
RCS: Unknown
Launch date: October 21, 2014
Source: Commonwealth of Independent States (former USSR) (CIS)
Launch site: TYURATAM MISSILE AND SPACE COMPLEX (TTMTR)

Note: This is a ROCKET BODY
Your satellite tracking list
Your tracking list is empty




NASA's NSSDC Master Catalog

Two Line Element Set (TLE):
1 40278U 14064B   24109.51009471 -.00000142  00000-0  00000+0 0  9996
2 40278   7.2460  70.3665 0598712 198.7457 159.0000  0.95222356 33029
Source of the keplerian elements: AFSPC